DateTimeUTC,F1_A11,F1_S11,BsB_S11,BsG_S11,BsR_S11,BbsB_S11,BbsG_S11,BbsR_S11,BaB_A11,BaG_A11,BaR_A11,Tu_S11,T_S11,Uu_S11,U_S11,P_S11,T1_A11
2021-05-20T00:00:00Z,00000200,21000000,,,,,,,0000.10,0000.22,0000.03,16.4,23.7,00.3,00.2,0675.0,30.9
2021-05-20T00:01:00Z,00000200,21000000,,,,,,,-000.14,0000.03,0000.19,16.4,23.7,00.3,00.2,0675.0,30.9
2021-05-20T00:02:00Z,00000200,21000000,,,,,,,-000.10,-000.41,0000.03,16.5,23.7,00.3,00.2,0675.0,30.9
2021-05-20T00:03:00Z,00000200,61000000,,,,,,,0000.58,0000.96,0000.14,16.5,23.8,00.3,00.2,0675.0,30.9
2021-05-20T00:04:00Z,00000200,41000000,0004.60,0002.73,0001.39,0000.44,0000.55,0000.17,0000.97,0000.82,0000.74,16.7,23.6,00.3,00.2,0675.9,30.9
2021-05-20T00:05:00Z,00000200,01000000,0004.64,0002.78,0001.73,0000.65,0000.49,0000.38,0000.76,0000.52,0000.73,16.8,23.6,00.4,00.3,0676.0,30.9
2021-05-20T00:06:00Z,00000200,01000000,0003.81,0002.91,0001.75,0000.54,0000.41,0000.19,0001.20,0001.13,0000.09,16.8,23.6,00.3,00.2,0676.1,30.9
2021-05-20T00:07:00Z,00000200,01000000,0004.93,0002.92,0001.56,0001.21,0000.44,0000.09,0000.73,0000.54,0000.86,16.8,23.5,00.4,00.2,0676.1,30.9
2021-05-20T00:08:00Z,00000200,01000000,0004.01,0002.91,0001.60,0000.72,0000.44,0000.01,0001.13,0000.84,0000.45,16.8,23.5,00.2,00.1,0676.1,30.9
2021-05-20T00:09:00Z,00000200,01000000,0004.59,0002.78,0001.68,0000.54,0000.57,0000.33,0000.97,0000.79,0000.50,16.7,23.5,00.3,00.2,0676.1,30.9
2021-05-20T00:10:00Z,00000200,01000000,0004.97,0002.62,0001.41,0000.34,0000.40,0000.02,0001.08,0001.44,0000.93,16.8,23.5,00.3,00.2,0676.1,30.9
2021-05-20T00:11:00Z,00000200,01000000,0004.73,0002.78,0001.75,0001.23,0000.85,0000.30,0001.23,0000.72,0001.09,16.8,23.5,00.4,00.3,0676.0,30.9
2021-05-20T00:12:00Z,00000200,01000000,0004.01,0002.40,0001.79,0000.60,0000.36,0000.47,0000.99,0001.10,0000.40,16.8,23.5,00.4,00.2,0676.1,30.9
2021-05-20T00:13:00Z,00000200,01000000,0004.23,0002.75,0001.44,0000.57,0000.48,0000.04,0001.02,0000.70,0000.65,16.8,23.5,00.3,00.2,0676.0,30.9
2021-05-20T00:14:00Z,00000200,01000000,0004.34,0002.56,0001.55,0000.03,0000.31,0000.36,0001.27,0001.51,0000.81,16.7,23.5,00.4,00.2,0676.0,30.9
2021-05-20T00:15:00Z,00000200,01000000,0005.09,0002.84,0001.73,0000.61,0000.60,0000.01,0001.53,0000.90,0001.05,16.7,23.5,00.3,00.2,0676.0,30.9
2021-05-20T00:16:00Z,00000200,01000000,0005.20,0002.65,0001.64,0000.69,0000.45,0000.44,0000.98,0000.75,0000.61,16.8,23.5,00.3,00.2,0676.0,30.9
2021-05-20T00:17:00Z,00000200,01000000,0004.33,0002.41,0001.53,0000.56,0000.68,0000.39,0000.77,0000.95,0000.75,16.9,23.6,00.3,00.2,0676.0,30.9
2021-05-20T00:18:00Z,00000200,01000000,0005.02,0002.75,0001.28,0000.55,0000.36,0000.08,0000.94,0001.32,0000.46,17.0,23.6,00.2,00.1,0676.0,30.9
2021-05-20T00:19:00Z,00000200,01000000,0004.94,0003.06,0001.45,0000.68,0000.45,0000.34,0001.21,0000.85,0000.67,17.0,23.7,00.2,00.1,0676.1,31.0
2021-05-20T00:20:00Z,00000200,01000000,0004.51,0002.89,0001.72,0000.38,0000.51,0000.19,0001.13,0000.57,0000.79,17.1,23.7,00.2,00.1,0676.1,30.9
2021-05-20T00:21:00Z,00000200,01000000,0004.62,0002.84,0001.58,0000.39,0000.55,0000.39,0000.82,0000.56,0000.72,17.2,23.7,00.2,00.1,0676.1,31.0
2021-05-20T00:22:00Z,00000200,01000000,0004.18,0002.89,0001.71,0000.37,0000.57,0000.41,0001.25,0001.49,0000.49,17.2,23.8,00.2,00.1,0676.1,31.0
2021-05-20T00:23:00Z,00000200,01000000,0004.67,0002.72,0001.76,0000.65,0000.64,0000.48,0000.71,0000.73,0000.75,17.3,23.8,00.2,00.1,0676.1,31.0
2021-05-20T00:24:00Z,00000200,01000000,0005.14,0003.01,0001.61,0000.84,0000.60,0000.40,0001.20,0001.08,0000.98,17.4,23.9,00.1,00.1,0676.1,31.0
2021-05-20T00:25:00Z,00000200,01000000,0004.37,0002.66,0001.44,0001.15,0000.59,0000.05,0000.74,0001.10,0000.47,17.5,23.9,00.2,00.1,0676.0,31.0
2021-05-20T00:26:00Z,00000200,01000000,0004.04,0002.48,0001.57,0000.76,0000.30,0000.24,0001.53,0001.15,0001.00,17.6,24.0,00.1,00.1,0676.0,31.0
2021-05-20T00:27:00Z,00000200,01000000,0005.28,0002.72,0001.52,0000.89,0000.35,0000.26,0001.05,0000.66,0000.73,17.6,24.0,00.2,00.1,0676.0,31.0
2021-05-20T00:28:00Z,00000200,01000000,0005.17,0002.53,0001.61,0000.58,0000.48,0000.22,0000.74,0000.70,0000.56,17.6,24.1,00.2,00.2,0676.0,31.0
2021-05-20T00:29:00Z,00000200,01000000,0004.67,0002.34,0001.75,0001.06,0000.32,0000.22,0001.62,0001.20,0000.87,17.6,24.1,00.2,00.1,0676.0,31.0
2021-05-20T00:30:00Z,00000200,01000000,0004.54,0002.44,0001.70,0000.52,0000.55,0000.35,0000.74,0000.94,0000.14,17.6,24.1,00.2,00.1,0676.0,31.0
2021-05-20T00:31:00Z,00000200,01000000,0004.43,0002.72,0001.41,0000.50,0000.39,0000.08,0000.59,0000.97,0000.89,17.6,24.1,00.2,00.1,0676.0,31.0
2021-05-20T00:32:00Z,00000200,01000000,0004.38,0002.37,0001.58,0000.53,0000.47,0000.40,0001.49,0000.70,0000.53,17.5,24.1,00.2,00.1,0676.0,31.0
2021-05-20T00:33:00Z,00000200,01000000,0004.81,0002.68,0001.35,0000.36,0000.48,0000.10,0000.74,0000.78,0001.12,17.5,24.1,00.2,00.1,0675.9,31.0
2021-05-20T00:34:00Z,00000200,01000000,0004.71,0002.66,0001.51,0000.38,0000.59,0000.37,0001.37,0001.67,0000.69,17.5,24.0,00.2,00.2,0675.9,31.0
2021-05-20T00:35:00Z,00000200,01000000,0004.41,0002.57,0001.35,0000.79,0000.55,0000.43,0001.53,0000.81,0000.82,17.5,24.0,00.3,00.2,0675.8,30.9
2021-05-20T00:36:00Z,00000200,01000000,0004.42,0002.84,0001.52,0000.59,0000.55,0000.40,0000.50,0000.68,0000.56,17.4,24.0,00.3,00.2,0675.8,30.9
2021-05-20T00:37:00Z,00000200,01000000,0004.62,0002.86,0001.78,0000.53,0000.48,0000.33,0001.39,0001.18,0000.51,17.4,24.0,00.3,00.2,0675.8,30.9
2021-05-20T00:38:00Z,00000200,01000000,0004.13,0002.82,0001.69,0001.16,0000.40,0000.09,0000.95,0000.73,0000.76,17.4,24.0,00.3,00.2,0675.8,30.9
2021-05-20T00:39:00Z,00000200,01000000,0004.55,0002.76,0001.72,0000.26,0000.60,0000.42,0000.62,0000.66,0000.41,17.3,24.0,00.3,00.2,0675.8,30.9
2021-05-20T00:40:00Z,00000200,01000000,0004.65,0002.89,0001.71,0000.44,0000.46,0000.29,0001.36,0000.98,0000.79,17.3,24.0,00.3,00.2,0675.8,30.9
2021-05-20T00:41:00Z,00000200,01000000,0005.16,0002.60,0001.60,0000.34,0000.58,0000.29,0000.98,0000.46,0000.68,17.3,23.9,00.3,00.2,0675.8,30.9
2021-05-20T00:42:00Z,00000200,01000000,0004.60,0002.66,0001.12,0001.01,0000.36,0000.20,0000.64,0001.23,0000.36,17.3,23.9,00.2,00.1,0675.8,30.9
2021-05-20T00:43:00Z,00000200,01000000,0005.07,0002.53,0001.61,0000.54,0000.56,0000.27,0001.12,0000.60,0000.78,17.2,23.9,00.2,00.1,0675.9,30.9
2021-05-20T00:44:00Z,00000200,01000000,0005.18,0002.70,0001.56,0000.51,0000.49,0000.27,0000.83,0000.88,0000.51,17.2,23.9,00.2,00.1,0675.9,30.9
2021-05-20T00:45:00Z,00000200,01000000,0004.40,0002.59,0001.56,0000.64,0000.54,0000.04,0001.23,0001.01,0000.37,17.2,23.9,00.2,00.1,0675.9,30.9
2021-05-20T00:46:00Z,00000200,01000000,0004.56,0002.75,0001.46,0000.89,0000.38,0000.49,0000.88,0000.79,0000.75,17.2,23.9,00.1,00.1,0675.9,30.9
2021-05-20T00:47:00Z,00000200,01000000,0004.41,0002.87,0001.30,0000.48,0000.53,-000.04,0001.09,0001.02,0000.82,17.1,23.9,00.1,00.1,0675.9,30.9
2021-05-20T00:48:00Z,00000200,01000000,0004.26,0002.67,0001.33,0000.51,0000.49,0000.43,0000.72,0000.86,0000.96,17.1,23.8,00.2,00.1,0675.9,30.9
2021-05-20T00:49:00Z,00000200,01000000,0003.77,0002.63,0001.41,0000.62,0000.50,0000.36,0001.04,0001.15,0000.26,17.1,23.8,00.1,00.1,0675.9,30.9
2021-05-20T00:50:00Z,00000200,01000000,0004.48,0003.06,0001.43,0000.71,0000.71,0000.28,0001.07,0000.69,0000.84,17.1,23.8,00.2,00.1,0675.9,30.9
2021-05-20T00:51:00Z,00000200,01000000,0003.89,0002.85,0001.33,0000.53,0000.48,0000.21,0001.16,0000.81,0000.42,17.1,23.8,00.1,00.1,0675.9,30.9
2021-05-20T00:52:00Z,00000200,01000000,0004.26,0002.85,0001.70,0000.51,0000.38,0000.44,0000.75,0001.04,0000.87,17.0,23.8,00.2,00.1,0675.9,30.9
2021-05-20T00:53:00Z,00000200,01000000,0005.02,0002.58,0001.17,0000.47,0000.58,0000.10,0001.79,0001.43,0000.62,17.0,23.8,00.2,00.1,0675.9,30.9
2021-05-20T00:54:00Z,00000200,01000000,0003.86,0002.54,0001.52,0000.76,0000.34,0000.03,0000.58,0000.52,0000.60,17.0,23.7,00.2,00.1,0675.8,30.9
2021-05-20T00:55:00Z,00000200,01000000,0004.97,0002.87,0001.73,0000.91,0000.50,0000.02,0001.10,0000.91,0000.72,17.0,23.7,00.2,00.1,0675.8,30.9
2021-05-20T00:56:00Z,00000200,01000000,0004.40,0002.85,0001.48,0000.69,0000.73,0000.22,0001.03,0001.02,0000.93,16.9,23.7,00.1,00.1,0675.8,30.9
2021-05-20T00:57:00Z,00000200,41000000,,,,,,,0000.36,0000.27,0000.20,17.0,23.7,,00.0,0675.8,30.9
2021-05-20T00:58:00Z,00000200,61000000,,,,,,,-000.24,-000.26,-000.35,16.6,23.9,00.0,00.0,0674.8,30.9
2021-05-20T00:59:00Z,00000200,21000000,,,,,,,-000.01,-000.27,0000.01,16.6,24.0,,00.0,0674.8,30.9
